Airfield :
LOGIN :

Register | Disclaimer

   EN    FR    IT 

 










Legend :    VFR   Marginal VFR   IFR   Intensive IFR   Very Intensive IFR
Visi :
Ceiling :
>= 8 km
>= 3000ft
5 to 8 km
1000 to 3000 ft
1500m to 5 km
500 to 1000 ft
800 to 1500m
200 to 500 ft
< 800m
< 200 ft
Symbols :   Thunderstorms  Fog  Heavy snow  Heavy precipitations  Wind > 20 kt
SIGMETs :     Misc.  Thunderstorms  Icing  Turbulence  Mountain Waves  Volcanic Ashes







- Airport Elevation : 138 ft
- IATA code : RLG


ETNL - Rostock Laage

CURRENT METAR :
  • 200820Z 25011KT 9999 FEW022 SCT120 BKN200 22/15 Q1009 BLU+BLU+

EXPIRED METARs :
  • 200720Z 26010KT 9999 FEW018 SCT220 22/15 Q1008 BLU+BLU+
  • 200620Z 26008KT 9999 FEW018 BKN280 21/15 Q1008 BLU+BLU+

TAF TAF ETNL
Valid from the 20 at 08:00 until the 20 at 17:00 UTC


200725Z 2008/2017 25010KT 9999 NSW FEW020 SCT100
PROB30 2011/2017 25015G25KT 2000 TSRA SCT020 BKN030CB BY ETGL
No reported NOTAMs for that airfield.



MET'MAP, your aeronautical weather chart ! - Copyright ORBIFLY December 2007 - Disclaimer

ORBIFLY MET'MAP TEAM :

Programming & Development : Alexandra Zaïnal
Concept & Development : Baudouin d'Aumeries
Co-Development & Prog : Marc-Olivier Méhu
Technical & hardware support : Manuel Goepfert

Contact : metmap@orbifly.com




SOURCES & CREDITS :

   NOAA